EW4799 Weather Reports


time (UTC)temp
F
wind
direction
speed
knots
gust
knots
rain 1hr
in
rain 24hr
in
rain mn
in
humidity
%
barometer
mb
20260831014601 72 0 0.0 0.9 0.00 0.00 0.00 52 1018.4
20260831013100 71 0 0.0 3.5 0.00 0.00 0.00 51 1018.4
20260831011558 74 29 0.0 2.6 0.00 0.00 0.00 45 1018.5
20260831010119 79 150 0.0 1.7 0.00 0.00 0.00 41 1018.6
20260831004600 79 0 0.0 2.6 0.00 0.00 0.00 40 1018.8
20260831003109 78 0 0.0 1.7 0.00 0.00 0.00 41 1018.9
20260831001559 75 147 0.0 3.5 0.00 0.00 0.00 43 1018.9
20260831000109 75 0 0.0 3.5 0.00 0.00 0.00 47 1019.1
20260830234622 75 177 0.9 4.3 0.00 0.00 0.00 45 1019.2
20260830233101 77 165 0.0 3.5 0.00 0.00 0.00 42 1019.3
20260830231604 78 183 0.9 3.5 0.00 0.00 0.00 42 1019.3
20260830230104 77 149 0.0 1.7 0.00 0.00 0.00 42 1019.3
20260830224602 75 83 1.7 2.6 0.00 0.00 0.00 44 1019.6
20260830223104 76 164 0.9 2.6 0.00 0.00 0.00 43 1019.8
20260830221608 75 200 0.9 3.5 0.00 0.00 0.00 45 1019.8
20260830220113 75 0 0.9 4.3 0.00 0.00 0.00 45 1019.7
20260830214603 74 143 0.9 3.5 0.00 0.00 0.00 45 1019.8
20260830213113 73 209 0.9 3.5 0.00 0.00 0.00 49 1020.0
20260830211606 73 0 0.9 3.5 0.00 0.00 0.00 48 1020.2
20260830210105 73 169 0.9 4.3 0.00 0.00 0.00 49 1020.2
20260830204601 72 143 0.9 5.2 0.00 0.01 0.00 51 1020.3
20260830203102 71 150 0.0 2.6 0.00 0.01 0.00 53 1020.3
20260830201605 69 158 0.9 4.3 0.00 0.01 0.00 55 1020.7
20260830200058 68 184 0.0 4.3 0.00 0.01 0.00 57 1020.8
20260830194606 67 159 0.9 2.6 0.00 0.01 0.00 59 1020.9
20260830193101 66 171 0.9 2.6 0.00 0.01 0.00 61 1020.9
20260830191557 65 159 0.9 3.5 0.00 0.01 0.00 63 1020.8
20260830190100 64 172 0.0 2.6 0.00 0.01 0.00 66 1021.0
20260830184601 64 150 0.9 3.5 0.00 0.01 0.00 67 1021.1
20260830183102 63 158 0.0 2.6 0.00 0.01 0.00 68 1021.2
20260830181605 62 101 0.9 3.5 0.00 0.01 0.00 69 1021.1
20260830180108 62 150 0.0 2.6 0.00 0.01 0.00 71 1021.3
20260830174615 61 0 0.0 1.7 0.00 0.01 0.00 71 1021.2
20260830173101 61 152 0.0 2.6 0.00 0.01 0.00 72 1021.3
20260830171602 61 341 0.0 2.6 0.00 0.01 0.00 72 1021.3
20260830170110 61 0 0.9 3.5 0.00 0.01 0.00 71 1021.1
20260830164605 60 0 0.0 2.6 0.00 0.05 0.00 72 1021.0
20260830163106 59 0 0.0 3.5 0.00 0.05 0.00 74 1021.0
20260830161622 59 0 0.0 1.7 0.00 0.05 0.00 75 1021.0
20260830160104 60 0 0.0 0.9 0.00 0.05 0.00 76 1021.1
20260830154604 59 0 0.0 1.7 0.00 0.06 0.00 76 1021.1
20260830153111 59 0 0.0 0.9 0.00 0.06 0.00 78 1021.0
20260830151610 58 0 0.0 1.7 0.00 0.06 0.00 78 1021.0
20260830150121 58 0 0.0 0.0 0.00 0.06 0.00 79 1021.0
20260830144606 57 0 0.0 0.0 0.00 0.16 0.00 80 1021.0
20260830143102 57 0 0.0 0.0 0.00 0.16 0.00 82 1020.9
20260830141605 57 0 0.0 0.0 0.00 0.16 0.00 82 1020.7
20260830140109 56 0 0.0 0.0 0.00 0.16 0.00 84 1020.6
20260830134603 56 0 0.0 0.0 0.00 0.30 0.00 84 1020.5
20260830133102 56 0 0.0 0.0 0.00 0.30 0.00 84 1020.5
20260830131605 56 0 0.0 0.0 0.00 0.30 0.00 84 1020.5
20260830130111 56 0 0.0 0.0 0.00 0.30 0.00 83 1020.5
20260830124610 57 0 0.0 0.0 0.00 0.30 0.00 82 1020.4
20260830123103 57 0 0.0 0.0 0.00 0.30 0.00 82 1020.5
20260830121603 57 0 0.0 0.0 0.00 0.30 0.00 82 1020.5
20260830114617 57 0 0.0 0.0 0.00 0.30 0.00 81 1020.6
20260830113100 57 0 0.0 0.0 0.00 0.30 0.00 81 1020.6
20260830111605 57 0 0.0 0.9 0.00 0.30 0.00 81 1020.4
20260830104606 57 0 0.0 0.0 0.00 0.30 0.00 81 1020.5
20260830103101 57 0 0.0 0.0 0.00 0.30 0.00 81 1020.5
20260830101604 57 0 0.0 0.0 0.00 0.30 0.00 80 1020.5
20260830100058 58 0 0.0 0.0 0.00 0.30 0.00 81 1020.5
20260830094557 58 193 0.0 0.0 0.00 0.30 0.00 80 1020.3
20260830093058 58 0 0.0 0.0 0.00 0.30 0.00 79 1020.3
20260830091602 58 0 0.0 0.0 0.00 0.30 0.00 79 1020.3
20260830090122 58 0 0.0 0.0 0.00 0.30 0.00 79 1020.5
20260830084606 58 0 0.0 0.0 0.00 0.30 0.00 79 1020.5
20260830083101 58 0 0.0 0.0 0.00 0.30 0.00 79 1020.4
20260830081600 58 0 0.0 0.0 0.00 0.30 0.00 80 1020.4
20260830074626 59 0 0.0 0.0 0.00 0.30 0.00 77 1020.2
20260830073058 59 0 0.0 2.6 0.00 0.30 0.00 77 1020.2
20260830071603 60 0 0.0 5.2 0.00 0.30 0.00 77 1020.1
20260830070058 60 197 0.9 2.6 0.00 0.30 0.00 76 1020.1
20260830064600 60 194 0.9 3.5 0.00 0.30 0.30 75 1019.9
20260830063105 60 175 0.9 3.5 0.00 0.30 0.30 75 1019.8
20260830061603 61 163 0.0 3.5 0.00 0.30 0.30 74 1019.6
20260830060059 61 201 0.0 3.5 0.00 0.30 0.30 74 1019.7
20260830054608 60 190 0.0 2.6 0.00 0.30 0.30 73 1019.6
20260830053059 60 28 0.0 3.5 0.00 0.30 0.30 74 1019.6
20260830051558 60 0 0.0 0.9 0.00 0.30 0.30 75 1019.6
20260830050115 59 0 0.0 0.9 0.00 0.30 0.30 78 1019.4
20260830044617 59 0 0.0 0.9 0.00 0.30 0.30 83 1019.4
20260830043100 60 0 0.0 0.0 0.00 0.30 0.30 83 1019.5
20260830040115 60 0 0.0 0.0 0.00 0.30 0.30 85 1019.1
20260830034604 60 0 0.0 0.0 0.00 0.30 0.30 85 1019.0
20260830033103 60 0 0.0 0.0 0.00 0.30 0.30 85 1018.8
20260830031618 61 0 0.0 0.0 0.00 0.30 0.30 85 1018.6
20260830030139 61 0 0.0 0.0 0.00 0.30 0.30 85 1018.4
20260830024601 62 0 0.0 0.0 0.00 0.30 0.30 85 1018.2
20260830023105 62 0 0.0 0.0 0.00 0.30 0.30 85 1018.3
20260830021604 62 0 0.0 0.0 0.00 0.30 0.30 85 1018.3
20260830020108 63 0 0.0 0.0 0.00 0.30 0.30 84 1018.2